Regional Weather Roundup
Issued by NWS

Home | Current Version | Previous Version | Text Only | Print | Product List | Glossary On
Versions: 1 2 3 4 5 6 7 8 9 10 11 12 13 14 15 16 17 18 19 20 21 22 23 24 25 26 27 28 29 30 31 32 33 34 35 36 37 38 39 40 41 42 43 44 45 46 47 48 49 50
000
ASUS43 KBIS 261910
RWRND

NORTH DAKOTA REGIONAL WEATHER ROUNDUP
NATIONAL WEATHER SERVICE BISMARCK ND
200 PM CDT THU MAY 26 2016

NOTE: "FAIR" INDICATES FEW OR NO CLOUDS BELOW 12,000 FEET WITH NO
SIGNIFICANT WEATHER AND/OR OBSTRUCTIONS TO VISIBILITY.


NDZ001>003-009>011-017-262000-
NORTHWEST NORTH DAKOTA

CITY           SKY/WX    TMP DP  RH WIND       PRES   REMARKS
WILLISTON      CLOUDY    65  49  56 NW7       29.80F
MINOT          CLOUDY    66  55  67 VRB5      29.79S
MINOT AFB      DRIZZLE   60  54  81 NE6       29.79S
$$

NDZ018>021-031>035-040>046-262000-
SOUTHWEST NORTH DAKOTA

CITY           SKY/WX    TMP DP  RH WIND       PRES   REMARKS
BISMARCK       PTSUNNY   73  49  42 SW7       29.80S
DICKINSON      LGT RAIN  59  49  69 W20G25    29.83R
GARRISON         N/A     66  48  52 W6        29.79S
HETTINGER ARPT PTSUNNY   65  43  44 W16G23    29.86R
$$

NDZ004>008-012>016-024-026-027-054-262000-
NORTHEAST NORTH DAKOTA

CITY           SKY/WX    TMP DP  RH WIND       PRES   REMARKS
GRAND FORKS    CLOUDY    66  56  70 W12       29.75R
GRND FRKS AFB  CLOUDY    67  55  66 W9        29.75S
DEVILS LAKE    CLOUDY    64  55  72 W14       29.78R
$$

NDZ022-023-025-028>030-036>039-047>053-262000-
SOUTHEAST NORTH DAKOTA

CITY           SKY/WX    TMP DP  RH WIND       PRES   REMARKS
FARGO          PTSUNNY   69  55  60 W15       29.79R
JAMESTOWN      SUNNY     70  52  52 W15G25    29.79S
$$





USA.gov is the U.S. government's official web portal to all federal, state and local government web resources and services.